Find Starlink 31181

NORAD ID: 58746 Int'l Des: 2024-005 Owner: SPXS Country: US Constellation: starlink operational
LEOCIRCULAR

当前视图

正在加载3D地球...

About Starlink 31181

Starlink 31181 (NORAD 58746) is a starlink constellation satellite (v2 mini) launched Jan 7, 2024 by SPXS of US. It operates in LEO, CIRCULAR orbit with a mass of 730.00 kg.

关于 Starlink 31181

正在加载描述...

即将过境

Passes for default location (London). Set your location on the main map for personalized predictions.

高度历史

Loading altitude history...

两行轨道根数

1 58746U 24005U 26166.91046723 .00001462 00000-0 62655-4 0 9995
2 58746 42.9978 232.8307 0001204 329.3835 30.6947 15.27571751137300
Epoch: Jun 15, 2026 • Age: 24 hours

当前状态

高度 482.1 km
速度 7.63 km/s
星下点 21.58°N, 24.07°E
发射日期 Jan 7, 2024
运行时间 2.4 years
类型 internet

技术详情

分类 Payload
质量 730.00 kg
干质量 700.00 kg
总质量 730.00 kg
长度 0.30 m
直径 4.10 m
跨度 29.00 m
形状 Box + pan
制造商 SPXS
平台类型 Starlink V2M
阶段状态 In Orbit
所有者/国家 SPXS/US

Most Searched